Location: Launay
(47.2429°N, 1.5727°E)
Time: 00:32:34
(UTC+00:00)

IRS-1A Rocket - Pass Details

Date: 19 May 2025
Orbit: 851 x 932 km, 98.9° (Epoch: 18 June)

Event Time Altitude Azimuth Distance (km) Brightness Sun altitude
Exits shadow 20:23:26 - 154° (SSE) 2,842 6.4 -8.3°
Reaches altitude 10° 20:23:59 10° 154° (SSE) 2,625 6.2 -8.4°
Maximum altitude 20:29:50 71° 72° (ENE) 972 4.4 -9.1°
Drops below altitude 10° 20:35:38 10° 349° (N) 2,603 7.7 -9.8°
Sets 20:38:02 0° 348° (NNW) 3,537 8.5 -10.1°
